Theta_e
334 335 336 336 335 335 333 331 331 331 330 329 328 326 325 325 325 326 325 326 326 328 329 328 328 330 331 332 332 331 330 329 329 329 329 330 331 334 337 336 336 336 335 334 334 334 334 335 334 333 333 331 330 330 330 329 329 329 328 328 328 328 328 329 328 328 327 327 327 327 327 327 327 327 327 327 327 328 328 328 328 329 329 329 330
334 334 334 333 334 333 333 331 330 329 328 328 328 328 327 325 325 328 328 326 327 329 328 327 330 331 331 332 332 331 330 329 329 329 330 331 332 334 336 337 337 337 336 335 335 335 334 332 332 332 332 331 330 330 329 329 330 329 328 328 328 328 328 328 328 328 328 327 327 327 327 327 327 326 326 327 327 327 327 327 328 327 328 328 328
335 334 333 332 331 331 331 330 330 330 329 328 329 330 328 330 329 328 326 327 327 328 327 328 329 332 332 332 331 331 331 331 331 331 331 331 330 329 334 335 335 336 338 338 335 335 335 334 334 333 332 332 332 332 331 330 330 328 328 328 327 328 328 328 328 328 328 327 327 327 327 326 326 326 326 326 326 326 326 326 326 326 327 327 327
334 333 332 331 331 331 330 330 329 329 332 331 332 333 334 332 331 330 329 329 329 329 329 328 328 330 331 331 332 332 331 331 332 331 331 330 329 329 329 332 335 336 337 337 337 336 335 335 335 335 334 333 332 331 330 330 329 329 328 328 328 328 328 327 328 328 327 327 327 327 327 327 327 326 326 326 325 325 326 325 326 326 326 326 326
333 333 333 332 332 331 330 331 331 331 333 333 334 331 331 331 331 331 330 330 329 329 331 328 328 328 330 331 332 332 332 332 331 331 331 329 328 327 328 329 330 338 337 335 338 338 336 336 335 335 333 333 332 332 330 330 329 329 329 328 328 327 327 328 328 328 328 328 327 327 327 327 326 326 326 325 325 325 325 325 325 325 326 326 326
334 333 332 332 331 331 330 331 332 333 333 333 332 331 331 332 331 330 333 328 328 327 328 327 328 328 330 330 331 331 332 332 331 330 330 329 327 327 327 327 326 328 332 337 338 337 337 336 336 335 334 332 332 331 331 331 330 330 329 329 329 328 328 327 326 326 327 327 327 327 327 326 326 326 326 325 325 325 325 325 325 325 325 325 325
334 333 332 332 331 330 331 331 332 332 332 331 329 330 331 330 330 328 325 327 328 328 327 327 327 329 330 330 331 331 332 331 331 330 329 327 329 327 328 327 327 329 330 330 339 338 338 336 336 337 335 333 332 332 331 331 331 330 330 329 329 328 328 328 328 327 326 326 326 327 326 326 326 326 326 325 325 325 325 325 325 325 325 325 325
334 333 331 331 331 330 331 332 333 332 331 330 331 329 329 329 330 329 326 326 328 327 327 327 328 328 330 331 331 332 330 330 330 330 328 328 328 327 328 328 329 330 335 328 329 334 337 336 337 338 336 334 334 334 333 332 331 330 329 329 329 329 329 328 328 328 327 327 327 327 326 326 325 325 326 325 325 325 325 325 325 325 325 325 325
335 334 332 331 331 332 332 333 333 332 331 331 329 330 329 329 327 328 328 326 326 327 326 327 327 328 331 331 331 331 330 330 328 328 328 327 326 327 328 328 332 336 328 327 328 328 334 334 336 337 337 336 335 333 333 333 334 332 331 331 330 329 329 329 329 327 328 327 327 326 326 325 325 325 326 325 325 325 325 325 325 325 325 325 325
334 333 332 332 331 331 332 333 332 331 329 330 329 330 329 329 328 327 327 327 325 325 325 327 328 328 329 330 330 330 330 329 329 330 327 326 326 328 328 328 329 329 329 329 328 328 330 333 335 336 337 336 335 334 334 335 335 334 333 333 332 331 330 330 329 329 329 328 327 327 326 326 326 326 326 326 326 326 326 325 325 325 324 324 325
333 333 332 333 331 331 331 331 331 329 328 328 328 329 329 329 328 328 327 326 326 326 327 327 327 327 329 329 330 329 328 328 328 327 326 327 330 332 329 327 329 328 329 328 327 328 328 327 327 327 330 336 334 334 334 335 334 335 335 335 334 334 332 332 331 330 329 329 327 327 327 327 327 327 327 327 326 326 326 326 325 325 325 326 325
333 332 333 332 331 330 331 331 330 329 327 327 326 328 329 329 328 327 325 326 325 328 328 327 327 326 327 328 329 330 328 326 325 326 327 329 330 329 327 327 328 328 329 328 327 327 328 328 331 328 330 334 334 334 334 334 335 334 334 335 335 335 334 334 333 331 329 329 328 327 327 327 329 330 329 328 327 326 326 326 326 326 326 325 325
334 333 332 334 331 331 331 330 330 329 327 327 327 329 330 329 328 327 325 324 324 327 328 330 326 324 326 326 327 329 330 329 328 327 326 327 328 327 327 328 326 327 325 328 328 328 327 327 327 327 328 328 329 334 334 334 335 334 334 335 336 335 335 335 335 333 331 330 329 329 329 329 330 331 330 329 328 326 326 326 326 326 326 326 325
333 332 333 332 330 329 329 330 329 328 328 328 328 331 330 328 327 325 325 325 323 326 329 328 324 322 321 321 323 325 327 327 327 327 328 328 328 329 327 327 328 327 327 327 327 328 328 327 326 327 326 325 325 325 327 327 330 334 334 334 334 335 335 334 335 335 333 332 332 331 330 330 330 331 331 330 328 328 328 327 326 328 328 328 328
332 332 331 331 330 329 329 329 328 329 327 327 329 328 329 328 327 326 323 323 324 327 328 323 321 321 323 321 317 317 321 324 326 327 328 329 329 329 329 329 329 328 326 326 326 326 327 325 326 325 325 325 325 326 327 331 332 335 335 335 335 334 336 335 334 335 334 333 333 332 331 331 331 330 330 331 331 331 330 329 328 328 328 329 329
332 332 331 331 330 329 329 328 328 330 328 328 329 327 328 327 327 327 326 322 323 325 327 323 325 322 315 313 316 317 314 317 319 324 328 328 328 327 326 327 329 327 325 324 324 325 326 326 325 325 324 324 324 325 324 325 332 335 334 333 334 334 336 335 335 334 335 334 333 333 331 331 331 331 331 331 332 331 330 330 330 329 329 330 330
331 331 332 330 330 330 329 329 329 331 331 330 329 328 328 328 327 327 326 324 323 324 326 325 325 323 319 315 314 312 312 317 320 320 325 325 326 327 327 326 326 325 324 324 326 325 325 325 325 324 323 323 323 323 323 323 323 331 328 335 335 335 333 334 333 335 334 334 333 333 332 332 332 331 331 331 330 330 331 331 331 330 330 331 330
331 331 332 331 329 330 331 331 331 331 331 330 330 330 330 328 328 328 326 326 325 323 322 325 326 325 321 318 318 313 314 318 318 313 323 325 325 327 325 324 324 324 324 324 325 325 326 326 324 324 324 323 321 321 321 322 326 322 324 329 331 334 334 334 334 334 333 335 334 333 333 332 331 331 331 331 331 331 331 331 330 330 330 328 327
330 330 330 331 330 330 331 332 333 332 332 330 330 330 330 329 329 327 326 327 326 323 323 323 323 324 324 322 322 319 322 318 313 318 315 320 323 324 324 326 325 325 323 324 325 324 325 325 325 325 323 322 320 320 319 323 327 328 332 329 328 325 327 329 334 335 335 335 335 335 335 333 332 331 330 329 329 329 328 328 328 328 327 326 325
330 330 330 331 331 331 332 332 333 332 331 330 329 329 330 331 329 328 328 328 326 324 323 324 321 321 322 319 321 322 322 318 320 318 317 314 317 323 325 324 324 324 324 323 323 322 323 323 324 324 323 322 319 318 318 318 318 321 323 324 323 322 322 322 322 324 331 332 335 335 334 332 331 329 328 327 326 326 326 325 325 325 323 322 321
331 330 330 331 333 332 332 332 332 331 331 330 328 328 329 329 328 327 327 327 326 326 325 324 323 321 319 317 320 320 318 319 320 317 317 316 316 318 319 323 323 321 321 321 322 322 323 324 325 325 322 319 318 317 317 317 317 318 322 321 321 321 321 319 316 316 318 329 330 331 331 331 331 329 327 326 325 324 324 324 324 323 322 321 321
330 331 330 332 333 332 332 332 331 331 331 330 330 328 328 328 328 327 327 327 325 326 326 325 324 322 321 320 319 317 317 316 315 316 318 318 316 317 318 318 316 316 319 319 321 322 323 324 324 322 319 317 316 315 315 315 316 317 319 320 321 320 321 319 313 316 318 321 329 328 328 328 328 327 325 325 324 323 323 323 323 323 323 322 321
328 329 330 332 332 332 332 331 330 332 330 330 329 329 329 329 329 328 327 327 325 325 324 324 323 322 321 322 321 321 318 316 316 317 316 315 317 316 315 316 315 314 316 321 323 323 324 323 320 318 317 315 314 314 313 314 318 318 319 318 319 319 318 314 311 313 317 322 325 328 327 328 327 326 324 324 324 324 324 324 324 324 323 322 320
326 327 328 330 331 330 331 330 330 329 328 329 329 330 330 330 329 328 327 326 326 326 324 323 323 323 322 321 321 320 318 319 319 318 317 317 317 315 314 315 316 315 319 317 322 322 323 321 318 317 315 314 314 314 315 314 316 319 316 317 317 317 318 317 312 311 310 316 321 327 327 327 327 326 326 325 325 324 324 323 323 322 322 321 321
325 326 326 328 328 327 327 327 328 328 328 328 329 330 330 330 329 327 327 326 326 325 324 323 324 323 322 321 321 321 320 320 321 319 319 319 317 315 313 315 311 313 316 318 317 321 320 316 317 316 314 313 314 313 312 312 311 317 316 316 316 315 317 320 318 313 310 309 313 321 326 326 326 325 325 325 324 326 324 321 315 313 315 318 320
324 325 325 327 326 326 326 327 328 328 328 328 329 330 330 330 328 327 327 326 326 324 324 324 323 323 323 321 321 321 319 322 321 320 319 318 316 315 314 311 312 314 315 316 317 314 312 314 315 314 313 312 311 311 310 311 311 316 314 312 312 313 312 315 317 314 310 308 308 312 316 320 324 324 324 321 318 316 313 310 311 311 310 311 314
325 325 325 326 326 326 325 326 327 327 327 327 329 329 329 330 329 327 327 326 326 325 323 323 324 323 321 322 322 320 321 322 322 321 321 320 318 316 315 311 309 310 311 313 315 311 307 307 312 312 312 311 310 309 309 308 313 315 312 306 306 310 310 312 315 314 310 307 305 306 308 310 310 311 312 312 310 310 312 313 311 309 310 311 314
325 325 324 326 326 325 326 326 327 326 326 327 327 327 327 328 326 326 326 329 326 325 324 324 324 322 322 320 322 322 322 323 323 322 322 321 319 317 316 315 312 308 308 308 310 306 308 303 306 309 310 309 309 308 312 311 309 313 310 303 303 305 308 308 311 311 310 309 307 306 305 306 306 307 308 310 312 313 313 312 311 310 308 312 314
326 325 325 325 326 326 326 326 326 326 325 325 326 325 326 327 326 325 326 326 327 326 324 325 324 323 321 322 322 321 322 323 323 322 322 320 319 318 317 316 315 312 308 305 306 302 304 303 301 305 309 308 308 309 308 307 310 307 303 302 301 301 307 307 307 307 308 307 307 307 306 307 308 309 312 313 313 313 312 310 311 309 310 313 313
327 327 325 324 326 329 325 324 324 324 324 324 325 325 325 324 325 324 325 326 325 323 324 325 324 323 322 321 320 321 321 323 323 323 322 320 318 317 316 314 312 313 310 308 305 303 303 303 301 301 305 307 307 307 307 307 311 306 303 302 301 301 307 307 306 304 305 306 304 304 304 306 309 312 312 313 313 311 309 310 309 310 312 313 313
326 325 324 325 325 325 325 324 323 323 323 322 324 324 324 322 322 322 322 325 324 323 322 324 323 324 322 321 319 321 320 322 322 323 322 320 318 317 315 315 312 309 310 308 302 302 304 302 302 304 305 305 308 306 307 307 309 306 302 300 301 307 308 306 306 306 306 306 304 305 307 308 308 310 311 313 312 311 311 312 311 312 314 314 311
325 325 324 324 324 324 324 324 322 321 322 321 323 323 322 322 322 323 322 323 324 323 322 322 327 324 322 321 319 321 320 320 321 321 320 320 319 317 316 315 312 310 308 306 306 304 304 303 302 303 305 305 306 305 304 307 309 308 302 301 303 310 304 301 306 306 307 306 305 308 311 312 310 311 312 311 311 311 312 311 312 313 313 309 308
325 324 324 322 322 323 324 323 322 321 321 320 321 322 320 320 321 322 322 323 324 322 323 322 324 323 323 322 321 321 320 320 318 319 320 320 318 318 317 315 313 310 308 306 304 302 303 303 303 302 303 304 303 303 304 304 305 304 305 301 303 302 300 300 301 304 305 305 304 304 306 307 307 311 309 308 309 309 309 307 308 310 308 306 306
325 324 322 321 321 322 321 320 321 321 321 320 320 320 320 319 319 321 321 321 322 322 323 323 322 325 322 321 322 321 320 320 316 319 318 318 318 316 315 316 314 310 309 307 303 303 302 302 301 301 301 302 300 301 302 302 303 305 302 302 303 301 300 299 299 300 304 304 303 302 304 305 305 306 306 304 305 305 306 305 304 304 307 303 302
324 323 322 320 320 320 319 319 320 319 320 320 318 318 318 319 318 318 320 320 320 320 321 322 323 322 321 321 321 319 322 320 317 314 314 315 315 316 312 313 314 310 309 308 306 303 302 300 301 301 300 301 299 300 301 302 303 305 303 302 303 302 302 300 300 300 301 303 302 302 302 304 304 303 304 305 304 304 305 305 303 303 303 301 300
323 322 321 320 319 318 318 317 319 318 318 318 317 317 317 316 317 317 318 319 320 320 320 321 322 322 322 320 320 320 319 320 315 314 312 313 311 310 310 310 311 309 308 307 308 304 301 302 300 301 301 300 299 301 302 301 301 303 305 303 303 302 301 302 301 300 301 302 302 302 302 304 304 302 302 303 304 303 303 303 302 301 302 301 300
323 322 321 320 318 317 317 317 318 318 317 317 316 313 314 314 316 317 318 319 319 319 320 321 324 322 321 321 319 318 315 315 313 312 312 311 310 310 309 310 310 309 309 307 306 306 304 302 302 301 301 301 301 302 302 301 301 302 304 304 303 302 301 301 303 303 304 303 302 302 301 302 303 302 301 302 302 302 301 301 301 301 302 301 300
323 322 321 319 318 316 316 317 318 317 315 315 315 314 313 313 314 315 317 317 318 318 319 320 321 321 321 319 317 315 315 313 312 312 311 311 311 310 309 310 311 310 308 306 306 305 305 304 302 301 300 301 300 301 302 303 302 302 302 303 303 303 302 301 301 303 304 303 302 302 302 301 301 302 302 302 301 300 300 300 301 301 301 301 300
322 321 320 319 317 316 316 316 315 313 312 311 311 312 313 311 311 313 314 315 316 317 318 319 320 320 320 319 316 315 314 314 313 312 312 312 313 310 309 309 310 309 308 306 305 304 304 303 301 302 302 301 301 301 302 304 303 303 302 302 302 303 302 301 302 302 303 304 303 302 301 301 302 301 301 301 300 301 301 300 301 302 301 300 300
321 321 318 315 314 314 313 311 310 310 309 308 307 309 312 310 311 313 314 316 316 316 316 316 317 318 318 317 315 315 315 314 314 312 313 312 312 312 309 311 310 310 309 307 305 304 303 303 302 302 300 301 301 304 303 303 302 301 303 302 301 301 302 302 302 303 303 303 303 303 302 301 301 301 301 301 301 301 301 301 302 302 302 300 299
319 316 314 314 312 310 310 309 308 308 307 305 304 304 309 313 312 313 313 315 316 315 314 314 315 315 314 313 313 314 318 318 313 313 314 314 313 312 309 312 311 311 310 309 308 307 305 304 305 304 303 300 301 302 300 299 301 302 303 302 302 302 302 302 303 303 303 302 302 302 301 301 300 299 299 299 300 301 301 302 302 303 302 300 299
316 315 314 313 311 310 308 307 307 306 304 303 301 299 299 308 312 314 313 315 316 315 314 313 313 313 313 313 316 316 312 312 308 303 302 305 310 312 310 311 310 310 309 309 308 307 307 306 305 304 304 302 302 303 302 301 303 303 302 301 301 302 300 301 302 303 304 302 301 300 301 302 300 300 299 299 301 302 301 300 301 301 301 299 299
314 313 312 310 309 308 307 305 303 302 301 299 296 293 298 306 312 312 312 313 314 315 314 313 311 311 311 312 312 314 311 308 304 300 299 299 299 300 302 307 311 311 309 308 307 306 305 305 304 303 302 302 303 304 304 305 304 302 301 302 302 302 301 300 300 302 303 304 301 300 302 301 301 300 300 300 301 301 301 301 300 301 300 300 299
312 311 310 308 307 306 304 302 301 301 299 296 294 297 300 303 308 314 314 313 313 313 313 312 312 314 316 316 315 315 316 313 307 304 302 298 297 297 297 297 297 299 303 307 306 306 304 304 304 305 304 305 305 304 303 304 303 303 305 304 303 302 302 301 300 302 304 303 302 300 301 301 301 301 300 301 301 301 301 301 300 299 300 300 299
310 308 306 305 303 303 302 301 299 299 298 294 294 297 300 302 303 310 314 314 314 314 314 315 315 315 314 313 311 311 312 314 314 311 307 307 301 299 301 303 301 297 294 296 299 306 306 304 305 304 304 304 305 306 304 307 306 308 303 304 304 304 304 303 303 301 306 303 301 299 299 301 300 299 299 301 302 301 301 300 300 299 299 299 299
305 303 302 301 300 299 299 299 297 297 296 295 294 297 300 302 303 308 315 315 315 315 315 315 315 314 313 312 310 308 307 308 307 308 313 311 309 310 309 309 310 308 303 300 297 296 301 306 306 306 305 307 308 304 307 308 310 309 308 308 305 304 303 305 306 305 306 305 303 301 299 302 300 298 298 301 302 302 301 301 299 299 299 299 298
303 301 300 299 298 298 297 297 297 296 295 293 294 296 300 302 303 307 315 316 315 315 314 315 315 315 314 312 309 307 307 307 305 305 311 312 311 311 310 310 309 308 310 310 309 309 309 308 306 306 307 307 308 309 308 308 309 309 308 307 306 308 308 306 306 306 306 307 304 302 302 303 299 300 300 302 303 302 302 300 299 299 299 298 298
300 299 298 298 297 297 297 297 297 295 294 292 293 296 300 302 305 314 315 314 313 312 312 313 315 316 314 310 308 306 304 303 300 299 306 312 311 309 309 308 309 307 307 306 298 299 303 305 305 305 306 306 301 304 304 303 303 305 307 309 309 308 308 307 306 305 304 305 306 306 303 306 301 303 304 304 301 301 302 301 300 300 299 299 298
299 298 298 297 297 296 296 295 295 294 294 293 293 295 298 302 306 314 314 313 311 309 309 309 311 311 310 308 306 304 302 301 296 295 298 303 307 306 307 306 305 306 306 307 302 299 297 297 296 296 296 296 296 296 295 294 298 304 306 306 307 307 304 303 304 301 307 303 302 308 307 306 303 302 302 298 298 299 300 299 298 297 298 298 298
300 300 299 298 298 297 295 294 294 294 294 294 293 294 295 297 304 312 312 311 309 307 306 305 304 304 305 307 305 301 299 299 293 294 297 302 304 304 304 303 301 301 302 303 304 303 300 299 299 299 299 298 299 299 298 297 296 298 306 304 305 304 303 304 304 304 305 303 301 303 304 305 302 299 300 300 298 297 296 295 295 295 296 296 296
302 301 300 298 296 296 295 295 298 294 293 294 293 292 294 295 302 306 308 308 307 306 304 301 299 298 296 297 299 298 298 294 291 292 294 301 303 302 301 301 299 298 300 300 300 300 301 301 301 303 302 303 305 305 306 301 301 299 303 307 307 305 304 303 303 301 301 300 301 301 303 302 302 300 299 299 295 295 293 294 294 294 294 295 295
Wind_Speed
6 6 6 5 4 4 5 4 3 3 3 2 3 2 2 2 1 1 2 0 3 4 3 2 4 4 6 5 5 5 5 4 4 4 3 4 4 7 11 11 9 10 11 11 11 11 10 10 10 9 9 9 9 9 10 10 10 11 11 11 11 11 12 12 12 13 13 12 12 12 11 12 12 12 13 13 13 12 12 12 14 14 14 15 15
6 6 6 5 5 3 3 4 3 2 2 3 2 2 2 2 0 2 3 3 4 3 4 3 6 5 5 6 5 5 5 5 4 5 3 3 4 5 11 9 7 7 8 9 10 10 9 8 8 9 9 9 10 10 9 10 10 10 10 10 10 11 11 12 12 12 12 12 12 12 12 12 11 12 12 12 12 12 12 13 13 13 13 13 14
7 7 6 5 4 4 4 3 4 5 4 2 2 3 1 1 2 5 4 4 4 2 2 4 5 5 4 6 5 5 5 5 4 3 3 4 3 3 6 11 8 7 5 7 9 10 10 10 10 10 10 10 10 10 9 9 9 9 9 10 10 10 11 11 11 11 12 11 12 12 12 12 12 12 12 12 12 12 12 13 13 12 12 13 13
7 6 7 5 5 5 4 4 4 4 4 4 4 3 5 4 5 4 3 4 4 4 4 5 4 4 4 5 5 5 4 4 4 4 4 4 3 4 3 4 8 6 9 8 7 8 9 10 10 9 9 9 10 9 9 9 9 9 9 10 10 9 9 10 11 11 11 11 11 12 12 12 12 12 12 12 11 11 12 12 12 12 13 14 13
6 7 6 6 6 5 5 5 4 4 4 3 5 9 3 2 5 2 4 4 4 5 5 4 4 4 4 4 5 5 4 5 4 4 4 3 3 3 4 2 2 5 9 10 6 6 8 10 10 9 9 9 9 10 10 9 9 9 9 9 9 9 9 10 10 10 11 11 11 11 11 12 12 11 11 11 10 11 11 12 12 12 12 13 14
6 6 6 6 5 5 6 5 4 4 5 6 10 8 3 2 5 1 4 4 5 4 5 5 4 4 5 5 5 4 5 5 4 4 4 3 3 3 3 3 2 2 2 6 7 7 6 7 10 10 9 8 9 9 9 10 9 9 9 9 9 9 9 9 9 9 10 10 11 10 10 10 11 11 12 11 11 10 11 12 12 12 12 12 13
5 6 6 6 5 5 5 4 4 5 5 6 10 8 5 4 5 3 2 3 4 3 4 5 4 4 4 5 5 5 5 5 4 4 4 3 4 3 3 2 2 3 4 3 5 5 5 6 7 10 9 9 9 9 9 9 9 9 9 8 9 9 9 9 9 9 9 9 9 10 10 10 10 10 10 10 11 11 11 11 11 11 11 12 11
5 6 6 6 5 5 4 4 5 5 6 6 8 9 6 3 3 4 5 3 4 4 4 5 4 4 5 5 4 5 5 5 4 4 4 4 3 3 3 2 3 3 4 4 3 3 5 5 3 7 9 9 9 9 9 9 9 9 9 9 8 8 9 9 9 9 9 9 9 9 9 10 9 9 9 10 11 11 11 10 11 10 11 12 11
5 5 6 5 5 5 4 5 5 5 4 6 7 6 6 5 4 3 5 5 5 5 4 5 4 4 4 5 5 5 5 4 4 4 4 5 3 3 3 2 3 4 4 3 3 3 4 3 4 2 6 9 9 9 9 9 10 10 9 9 9 8 8 9 9 9 9 9 9 9 9 9 8 9 8 9 9 10 11 11 11 10 10 10 10
5 6 6 5 5 5 5 5 5 5 4 5 6 5 4 5 6 3 2 6 5 5 5 5 4 4 5 5 5 4 4 4 4 4 5 4 3 3 2 2 3 3 4 4 3 4 3 2 3 4 4 4 6 9 9 9 10 10 10 10 10 10 9 9 9 8 9 9 9 10 9 8 8 8 8 8 8 9 9 10 10 10 10 10 9
5 6 7 6 5 5 5 4 5 5 5 5 6 5 5 3 5 4 0 2 6 4 5 5 5 4 5 5 5 5 4 4 4 4 4 3 3 3 3 3 3 3 4 3 3 3 4 2 3 1 2 3 3 5 6 6 9 11 11 11 10 11 11 10 10 9 9 9 9 8 8 8 9 8 8 9 8 8 8 9 9 9 9 8 8
5 5 6 6 6 5 5 5 5 4 5 6 5 6 7 4 2 5 5 3 2 4 5 7 6 6 6 5 5 5 4 3 4 2 3 4 3 3 3 2 4 3 3 4 3 3 3 3 3 3 2 4 5 5 3 2 4 8 10 10 10 11 12 12 11 11 10 9 9 8 7 5 8 9 9 9 9 8 8 8 8 8 7 7 6
5 6 6 6 5 6 5 3 4 4 4 5 5 7 7 8 5 3 9 6 2 3 4 7 8 5 5 6 6 5 5 4 4 5 3 3 3 3 3 2 3 3 2 4 4 3 2 2 2 3 4 1 1 3 4 4 1 6 7 8 7 9 12 13 13 13 12 11 9 8 7 5 7 8 9 9 8 8 7 7 7 7 7 7 8
5 4 5 5 5 5 5 5 5 4 4 3 4 5 7 8 7 4 2 8 5 5 6 8 3 5 6 4 5 5 5 5 5 5 3 3 2 3 3 3 4 2 3 4 3 3 2 2 2 2 2 2 1 1 1 2 2 2 5 7 8 8 8 11 12 13 12 12 11 8 5 4 3 6 9 9 9 8 7 6 6 7 7 8 7
4 4 5 5 5 5 5 5 5 5 4 3 5 6 7 8 7 8 5 1 3 4 7 1 6 4 4 5 3 3 2 3 4 4 3 3 2 3 3 4 3 2 3 3 3 3 2 2 3 2 2 2 1 1 0 1 0 1 4 6 7 7 8 8 10 12 12 11 11 9 7 5 3 2 6 7 7 7 7 7 6 5 4 5 5
4 4 4 5 6 5 5 5 5 4 5 5 6 8 7 5 4 7 8 7 3 4 5 2 6 10 4 1 2 2 3 2 2 3 2 2 3 4 3 2 3 2 2 3 2 3 2 2 2 2 2 2 1 1 1 1 2 2 1 4 4 8 7 8 8 10 11 9 8 8 6 5 4 3 6 6 5 5 5 5 4 4 3 3 6
4 4 4 5 5 5 6 5 4 5 4 4 6 9 9 8 9 8 8 9 8 4 5 2 5 1 7 6 2 0 1 3 4 2 1 2 2 4 4 3 3 3 3 3 1 2 2 3 2 1 2 2 2 1 1 2 2 2 2 2 3 8 8 7 7 8 9 8 7 7 6 6 7 7 7 6 4 5 6 8 11 12 14 15 15
4 4 4 4 4 5 5 4 5 4 4 5 6 5 7 7 9 9 7 6 9 7 4 3 7 5 3 3 6 6 6 4 3 3 1 2 2 3 3 2 4 2 2 2 3 2 1 3 3 2 2 3 2 2 1 2 2 2 3 4 7 5 7 7 8 8 9 10 9 8 9 10 9 9 9 10 12 13 13 13 13 13 14 14 14
4 4 4 4 3 4 4 4 5 4 4 6 6 7 6 6 7 7 8 7 6 8 6 7 4 4 4 2 2 2 9 9 3 4 4 1 2 2 1 2 2 4 2 2 3 2 2 2 3 3 3 2 2 2 2 3 4 4 7 8 8 8 8 8 10 12 11 11 11 11 12 12 13 13 13 12 12 13 13 13 13 13 13 13 13
4 4 3 3 4 4 4 3 4 5 5 6 6 4 4 4 7 7 7 7 8 8 7 8 8 4 0 1 3 5 8 3 4 6 7 6 4 2 2 2 2 2 3 2 2 3 3 3 3 3 4 3 2 2 2 3 3 4 5 9 9 8 7 7 8 7 9 10 12 13 14 14 13 12 12 12 12 13 13 13 13 12 13 13 13
4 4 4 4 4 4 4 4 4 5 5 5 4 4 4 5 6 6 7 6 6 6 7 9 6 5 3 3 6 6 3 3 5 3 6 6 4 4 4 2 1 2 2 2 2 2 3 4 4 3 4 3 3 2 3 3 4 4 5 10 10 10 10 10 10 10 8 7 10 11 11 11 12 12 12 12 12 12 12 13 13 13 13 13 14
4 4 5 6 5 4 5 5 5 5 4 4 4 4 4 5 6 6 6 6 4 6 7 7 5 4 4 6 6 4 4 3 2 4 4 2 6 7 6 6 5 2 2 3 3 2 3 4 4 4 4 4 3 3 2 3 3 4 6 10 10 10 9 9 10 9 8 8 7 9 9 10 10 10 11 11 12 12 12 12 13 13 13 13 13
5 5 7 6 5 6 6 5 5 4 4 4 6 6 6 6 5 5 5 6 5 5 4 4 5 5 4 7 8 9 8 7 8 6 5 5 6 5 4 4 4 4 3 4 4 3 3 3 4 4 3 3 3 4 3 3 4 5 9 10 10 9 9 9 9 9 7 7 7 9 9 9 10 10 10 10 11 11 11 12 12 13 13 13 13
5 6 6 6 6 6 5 4 5 5 5 5 4 6 6 5 5 5 5 4 4 5 5 6 5 5 5 5 6 4 4 6 7 7 7 7 9 8 6 3 3 1 2 2 1 2 3 3 3 3 3 3 3 3 3 4 4 8 6 9 9 10 10 10 10 9 9 8 7 7 9 9 9 9 10 10 10 11 11 11 12 12 12 12 12
6 7 6 6 6 5 5 6 5 5 5 4 4 5 6 6 6 5 5 6 6 6 6 6 7 6 6 4 5 4 4 5 6 6 4 6 8 8 2 3 4 3 2 3 2 2 2 3 3 3 3 3 3 4 4 4 3 6 7 6 10 9 10 10 10 9 9 9 9 7 7 8 8 8 9 9 10 12 13 12 11 11 10 8 9
6 6 6 5 5 5 5 6 6 6 5 5 5 5 5 6 6 6 5 5 5 5 6 5 5 5 5 5 4 5 3 6 6 6 7 7 7 9 8 2 2 4 2 2 2 4 1 2 2 3 3 3 3 3 4 4 4 6 7 6 7 10 10 10 9 8 8 9 9 10 10 9 8 9 10 11 11 10 10 9 9 9 10 9 8
6 4 4 5 5 5 5 6 6 6 5 5 5 5 5 5 5 5 5 4 5 6 5 5 5 4 4 5 5 3 5 6 7 7 7 8 8 8 9 9 3 2 3 1 3 1 3 1 2 2 2 3 3 3 4 4 5 7 7 5 4 8 9 9 9 9 8 8 8 8 9 9 9 9 9 8 9 9 9 7 7 8 8 7 7
4 5 4 6 6 5 5 5 5 5 5 6 5 5 5 6 4 4 5 3 5 5 5 5 5 4 4 3 3 4 5 6 6 7 7 7 7 7 7 9 11 7 3 3 3 1 4 3 0 2 3 3 2 3 5 6 5 6 6 4 4 5 8 9 9 8 7 7 7 8 8 9 9 8 8 8 8 8 7 7 6 7 7 6 6
6 5 5 5 6 5 5 5 5 5 5 5 5 5 5 6 5 4 5 4 5 5 4 5 4 4 3 4 4 4 4 4 5 6 7 6 6 7 7 9 9 10 7 5 5 3 4 2 3 2 3 3 2 2 5 4 5 5 4 4 4 4 7 9 9 9 8 8 8 8 8 8 8 7 7 6 7 6 7 7 7 6 6 5 6
6 5 5 5 5 5 6 5 5 5 5 4 5 5 5 6 5 5 5 5 4 3 3 4 5 3 3 3 3 4 3 5 6 6 7 7 6 7 6 2 2 8 8 8 6 3 4 3 2 3 4 4 3 2 4 4 6 6 4 4 4 4 7 8 8 9 8 8 8 8 8 7 6 6 6 5 5 6 6 6 6 5 5 6 6
6 5 5 6 6 5 6 5 5 5 5 5 5 5 5 5 5 5 3 4 5 4 3 4 3 4 4 4 3 4 3 4 5 6 6 6 6 6 5 4 3 1 5 7 5 4 4 7 3 3 4 4 5 3 3 4 6 6 4 4 3 5 6 5 7 7 8 7 7 7 7 6 6 6 5 5 6 6 6 6 5 5 6 6 5
6 6 6 6 6 6 5 6 4 5 5 5 6 6 5 5 5 5 3 4 5 4 3 3 4 4 4 4 3 4 4 3 4 6 6 6 6 6 6 6 4 4 5 5 8 8 4 5 3 4 5 6 6 6 4 5 5 8 4 4 4 6 4 3 5 6 6 7 7 7 8 8 7 7 7 8 8 8 7 6 6 6 5 6 6
7 7 7 6 6 6 6 5 5 5 5 5 5 6 5 5 5 5 4 5 5 4 4 4 3 4 5 4 4 4 3 4 4 5 6 6 6 7 6 6 6 5 7 5 5 3 1 1 3 3 4 6 5 5 7 6 5 4 5 4 5 5 4 4 4 6 8 8 9 9 9 9 10 10 11 10 10 9 8 8 7 7 7 8 8
6 8 8 7 6 7 6 6 6 5 5 5 5 5 6 6 5 4 5 5 5 5 4 5 4 4 4 4 4 3 2 4 3 3 5 7 8 6 6 6 6 6 5 6 4 6 6 0 3 3 3 5 4 5 7 8 6 4 6 5 4 6 6 5 6 6 11 11 11 11 11 11 12 12 12 12 12 11 11 11 11 10 10 10 9
5 7 7 7 7 6 6 5 5 5 5 5 4 5 5 5 5 4 5 5 6 6 5 5 5 4 4 4 5 3 2 3 3 2 3 5 5 6 5 6 7 7 7 6 7 4 6 3 4 5 6 6 5 7 7 6 8 8 7 7 7 6 6 6 7 6 10 12 13 12 13 14 13 14 13 13 13 13 13 13 14 13 12 12 11
7 7 7 6 6 6 6 4 5 5 5 4 4 4 5 5 6 6 5 5 6 6 6 6 5 5 5 4 4 4 4 6 4 1 1 1 2 4 4 4 5 8 7 6 9 7 4 7 4 8 7 7 6 4 5 3 4 6 6 4 2 5 5 6 6 6 8 13 14 15 14 13 13 13 13 13 12 12 12 13 14 14 14 14 13
7 7 7 6 5 6 5 5 4 5 4 5 4 4 4 5 7 7 7 6 6 6 5 6 6 5 5 5 4 4 4 5 1 1 2 2 4 5 4 4 6 6 5 6 6 6 8 8 6 4 4 4 2 2 5 6 4 4 3 4 5 6 5 5 5 7 8 13 15 15 14 14 14 14 14 14 13 14 13 13 13 13 13 14 14
8 8 7 6 7 6 6 4 4 4 3 4 6 5 5 5 5 5 6 6 6 6 5 5 5 5 5 4 4 3 4 4 3 3 1 4 4 4 4 4 4 5 5 4 6 7 8 8 8 5 3 5 4 4 6 6 7 5 4 4 3 4 5 6 7 6 5 6 6 8 10 11 13 14 14 14 14 14 13 13 13 13 13 13 13
9 7 6 7 5 5 4 5 4 4 3 4 3 3 5 5 6 6 6 5 5 5 5 5 4 5 5 5 4 3 5 5 6 5 4 4 5 4 4 4 3 5 5 5 5 6 5 6 4 6 7 5 4 6 4 5 3 4 6 4 6 6 5 7 8 7 6 7 9 12 12 11 11 10 12 14 14 14 14 14 13 14 13 13 12
9 7 6 7 5 6 6 6 5 4 4 4 3 2 3 4 5 4 5 6 6 4 4 4 3 3 4 2 5 4 6 5 6 4 5 6 5 5 3 4 4 6 5 4 3 5 5 5 6 6 5 6 4 1 2 3 3 4 5 7 9 8 8 8 10 9 7 6 8 7 8 8 9 11 12 12 14 15 14 13 14 13 14 13 13
6 7 8 9 9 8 7 6 6 4 5 4 2 1 2 3 3 5 5 6 6 6 4 4 5 7 3 5 5 5 5 6 7 5 5 5 7 7 3 5 5 6 5 5 4 4 3 4 4 2 4 4 5 5 5 6 8 11 9 6 7 7 6 5 8 7 6 6 7 6 6 7 8 8 8 7 10 12 12 14 11 14 14 13 14
8 9 9 8 9 9 8 6 6 5 4 2 3 5 4 1 4 5 5 6 6 6 6 5 5 6 5 6 6 10 10 9 9 11 11 11 9 7 5 6 7 6 5 5 5 4 5 4 3 4 5 6 6 6 6 7 8 5 1 4 7 9 4 6 7 6 7 6 7 8 10 6 7 8 6 9 10 8 8 7 10 11 12 14 15
9 9 10 10 8 7 8 7 7 5 3 2 5 4 2 4 5 5 5 5 5 7 6 6 7 7 6 6 6 8 8 8 7 10 12 12 12 12 10 7 6 7 7 6 2 2 2 3 1 3 1 1 2 3 4 4 3 5 7 5 7 6 7 7 9 6 2 9 8 8 10 5 7 9 9 9 10 7 8 10 15 15 15 15 16
8 9 11 10 9 7 7 7 8 6 5 5 5 2 6 9 9 7 6 6 5 5 6 7 7 7 7 7 6 6 6 5 4 4 7 9 10 11 11 11 10 9 5 4 3 2 2 3 2 1 1 1 1 1 1 1 2 3 4 4 6 7 7 6 4 5 4 4 7 5 9 3 6 8 8 9 9 7 9 12 14 14 16 16 16
8 11 10 10 8 6 7 8 7 5 5 7 5 7 10 12 14 11 6 7 7 6 7 7 8 7 6 7 7 6 5 10 6 4 4 5 8 11 11 11 11 10 11 11 8 3 3 3 0 0 2 2 1 3 1 1 0 0 2 1 4 5 3 2 4 4 7 4 3 3 7 5 6 7 8 10 8 6 8 12 16 16 17 17 16
10 10 9 10 8 7 6 8 7 6 5 8 7 9 12 13 14 12 7 8 7 7 7 7 7 7 7 7 7 6 4 5 6 6 5 5 5 6 7 6 5 7 10 11 10 9 5 2 1 0 2 1 3 2 4 4 5 5 6 5 3 3 4 7 4 6 4 5 8 5 2 6 3 2 7 10 8 7 8 13 18 18 16 16 15
11 10 9 10 7 7 6 6 8 8 6 9 7 9 12 14 14 11 8 8 8 7 6 5 5 5 7 7 8 7 6 5 3 6 7 5 6 6 7 6 6 5 7 7 7 6 5 4 3 1 2 3 3 4 3 2 1 2 1 1 1 2 1 1 3 3 4 5 3 2 4 6 0 4 7 9 7 7 7 10 13 15 16 16 17
9 10 8 8 8 7 6 6 9 9 7 12 9 9 12 13 14 9 7 7 7 7 7 7 7 6 5 6 7 8 8 5 7 11 10 7 8 7 7 6 6 4 4 3 3 4 4 3 2 2 2 4 5 6 5 3 0 1 0 1 3 2 4 7 8 3 3 5 6 5 2 7 4 6 8 8 4 6 6 4 7 11 14 15 16
10 10 9 8 6 7 7 8 10 8 8 11 11 11 10 12 10 8 9 8 8 8 8 8 8 8 8 7 6 7 8 6 6 9 9 12 8 7 6 5 4 4 5 6 7 8 9 9 8 7 8 8 8 8 8 7 1 1 0 2 7 3 2 5 5 3 5 1 0 6 5 6 5 6 7 3 2 3 7 6 6 7 5 7 8
11 10 10 10 8 7 8 9 8 9 8 11 13 13 13 11 9 9 8 9 9 8 9 8 7 8 10 15 9 7 7 5 7 9 8 7 7 6 6 5 4 4 4 5 5 5 5 6 6 9 9 10 11 10 8 9 5 3 3 4 4 1 4 4 5 4 5 4 2 3 2 4 0 1 3 2 4 3 5 5 5 5 6 4 7
10 9 9 10 9 8 8 8 11 11 9 11 14 14 15 12 8 6 7 9 9 7 8 7 7 6 7 8 10 7 6 4 7 8 8 6 5 5 5 5 3 2 2 3 5 7 8 8 6 8 7 8 7 5 6 10 7 3 4 6 6 4 6 6 6 5 5 2 2 4 1 4 5 4 3 4 3 1 1 3 4 4 4 5 5
Wind_Direction
148 145 139 159 163 173 172 177 172 164 155 161 155 187 231 239 237 252 39 56 161 152 130 116 135 96 114 125 130 132 128 125 129 121 111 108 121 140 135 129 132 134 134 133 131 130 129 126 124 121 119 117 116 111 105 114 115 110 106 104 102 102 101 98 96 90 86 85 87 86 86 85 84 86 85 82 79 74 74 71 68 65 64 63 61
147 150 149 161 166 171 183 171 176 155 151 168 180 165 237 268 310 50 102 78 100 121 116 140 95 104 112 121 129 134 133 137 128 122 117 113 122 132 133 130 138 138 134 135 132 123 118 122 122 125 124 126 123 120 120 110 103 105 113 111 103 98 95 97 96 94 93 89 89 90 88 87 85 86 86 85 82 80 78 76 73 70 70 69 68
144 152 158 152 148 153 175 156 165 167 163 200 165 185 169 315 111 106 116 105 90 92 116 96 78 90 111 114 122 123 127 122 113 109 108 110 111 115 131 134 141 142 137 113 117 126 132 131 134 133 134 134 133 128 121 116 112 117 108 104 106 106 105 102 100 100 97 94 92 91 88 86 86 84 83 83 83 83 82 78 78 80 79 74 70
141 146 150 147 144 144 151 139 137 110 132 167 181 86 86 117 106 111 113 116 110 93 65 72 78 81 107 104 108 119 126 122 118 120 111 100 101 102 114 135 150 139 113 113 132 132 127 130 134 131 134 132 127 125 123 124 126 121 119 116 110 105 105 106 100 96 99 100 97 94 93 91 87 85 83 80 80 84 84 81 80 79 78 78 77
145 145 140 142 144 136 130 134 124 110 88 97 83 72 50 294 91 78 105 87 101 82 78 75 92 93 94 92 103 110 116 113 118 114 105 101 94 104 105 117 117 114 129 140 146 134 130 132 132 135 134 136 134 134 135 133 125 121 116 110 110 110 110 106 104 104 104 105 103 98 98 99 98 94 91 89 88 89 86 83 80 77 75 74 76
144 139 134 132 132 136 135 124 107 77 77 80 90 113 198 203 78 106 85 93 90 86 102 96 87 105 102 108 102 115 115 112 116 112 103 98 105 97 103 91 82 73 103 126 105 96 93 124 137 133 135 135 137 136 135 133 131 128 123 119 116 115 111 108 108 109 108 103 103 106 103 98 97 96 94 97 95 90 89 87 82 80 81 78 75
147 136 133 133 138 135 124 118 106 83 83 83 111 127 178 173 117 124 86 100 104 105 107 103 110 111 114 117 115 110 104 109 108 107 101 98 93 88 80 77 63 52 58 53 89 106 114 126 138 135 138 138 141 141 140 139 136 134 133 128 123 122 124 123 117 113 112 112 109 104 104 103 98 94 92 91 91 92 91 89 85 82 82 80 76
148 138 135 141 142 138 133 121 104 99 103 100 111 132 168 152 137 145 134 129 116 97 101 106 113 105 103 103 107 110 113 112 113 101 89 87 79 77 71 70 70 87 77 70 77 90 111 137 137 136 144 146 147 148 145 145 141 140 139 134 131 127 123 122 123 124 121 115 111 110 109 110 109 103 97 95 94 90 88 88 88 84 76 75 76
145 142 135 140 136 133 127 119 109 115 120 119 108 132 157 160 131 201 154 142 123 122 103 114 111 99 98 104 104 111 109 114 108 103 99 93 92 88 95 97 106 84 66 72 59 58 113 161 147 116 146 147 151 150 152 147 148 148 146 142 139 137 135 132 131 126 122 118 116 111 105 103 102 103 103 102 101 100 95 94 94 91 84 78 75
142 139 130 137 139 130 132 130 125 117 120 122 126 142 150 139 137 193 184 127 138 141 129 120 108 103 93 88 92 90 104 105 97 99 108 113 99 99 102 75 94 79 77 72 64 58 52 79 83 55 82 127 150 159 162 158 155 154 153 154 152 149 148 142 135 131 125 122 119 116 116 114 115 115 118 114 109 106 102 98 97 95 91 86 79
143 139 136 139 133 133 138 137 121 124 132 128 125 131 127 119 149 150 113 108 140 144 136 122 107 96 86 82 87 95 93 91 92 106 116 125 129 111 82 84 66 80 80 72 66 65 89 95 81 24 44 85 133 168 153 162 163 164 166 167 163 155 150 145 141 139 133 129 126 126 128 128 121 122 124 122 120 115 111 105 100 99 93 85 82
150 143 139 143 144 151 144 135 128 141 148 133 137 128 138 141 176 148 129 94 74 131 130 114 94 87 81 70 75 100 88 83 81 75 119 117 122 119 111 83 72 76 83 89 81 71 69 95 102 69 62 66 54 36 100 166 202 177 173 166 162 156 157 152 148 142 141 141 139 136 137 129 106 105 109 118 122 120 118 112 105 102 103 101 97
152 147 148 146 151 145 135 138 136 155 150 150 145 129 137 139 164 200 137 124 121 153 134 124 118 94 77 78 66 68 84 75 62 55 48 89 126 122 92 79 112 93 104 93 84 77 75 75 79 81 96 94 53 64 43 20 35 214 179 177 177 167 161 154 148 145 148 152 150 144 141 120 96 105 109 112 116 116 113 113 115 110 111 114 112
149 153 143 141 149 139 148 154 153 157 142 151 128 138 137 143 153 141 165 140 146 171 156 132 108 137 141 113 73 61 67 70 66 68 74 70 91 117 117 131 139 134 101 90 88 90 96 82 78 83 77 82 82 29 22 5 342 215 197 199 189 189 164 163 155 152 154 156 157 149 137 133 119 107 116 118 119 120 118 117 119 115 113 121 118
152 157 148 144 146 138 159 155 161 153 132 130 136 124 149 154 163 147 150 68 110 181 175 227 126 111 97 100 127 122 92 70 60 52 79 110 104 103 114 135 128 138 122 102 110 101 66 96 95 90 87 88 82 100 113 49 27 271 215 217 205 200 177 170 163 160 157 157 156 156 159 158 165 159 128 120 120 121 120 118 121 126 114 86 116
159 163 154 149 152 154 159 160 168 144 143 160 135 134 159 142 167 155 147 138 156 190 209 206 141 136 131 160 131 47 118 107 99 53 47 109 121 106 102 79 115 112 99 114 124 108 96 108 107 102 100 96 81 78 51 345 51 42 24 210 223 188 194 174 166 160 157 160 159 158 156 172 181 149 134 112 99 103 123 130 137 161 162 144 126
166 163 165 163 162 157 165 172 163 151 151 178 152 161 167 166 163 154 164 155 164 171 214 194 183 176 132 123 82 355 225 113 110 54 33 81 85 126 143 150 138 114 118 107 68 116 140 117 97 71 81 71 44 26 37 39 30 29 21 88 125 161 162 171 171 155 150 147 153 157 156 147 133 117 116 108 107 124 119 109 107 100 97 92 87
177 174 174 169 167 168 171 169 155 156 168 185 156 155 154 153 162 161 165 173 158 166 183 216 189 202 221 137 160 169 158 148 145 141 55 48 93 104 121 128 123 122 70 119 119 96 94 113 106 89 51 54 58 42 29 47 53 41 57 62 92 109 125 142 138 135 133 126 122 132 131 125 124 115 116 115 110 109 107 104 101 97 91 88 91
187 187 181 180 167 176 182 169 158 158 161 150 153 162 161 152 161 160 168 165 156 163 172 179 210 276 225 228 132 115 145 146 170 120 130 109 80 111 124 96 131 125 151 149 156 117 103 121 108 101 83 62 58 42 37 44 57 61 81 78 82 102 118 131 135 131 119 112 119 125 128 126 122 122 118 115 110 107 107 104 103 103 101 97 94
188 192 190 179 178 185 176 160 150 155 160 153 156 158 140 137 161 170 161 167 168 165 172 177 183 217 167 91 90 124 137 89 140 157 137 140 142 86 88 125 149 138 160 162 150 140 149 126 120 109 99 84 64 62 57 62 60 70 77 83 81 79 83 85 82 96 121 119 112 116 118 117 114 113 111 110 108 107 107 107 105 102 100 99 97
196 189 192 193 187 182 163 159 148 152 160 151 165 144 154 149 153 157 167 172 172 169 161 182 188 186 122 68 110 125 94 95 127 120 143 143 117 151 148 123 169 231 184 170 167 164 160 147 137 119 109 96 79 69 66 72 74 75 87 91 92 90 89 91 88 77 72 114 127 121 119 119 116 112 111 110 109 107 106 106 106 104 103 101 99
200 194 194 193 187 173 168 164 157 152 154 161 160 156 169 160 163 170 168 165 167 163 175 177 181 179 166 148 136 117 95 90 90 112 69 54 149 157 161 159 156 220 163 169 168 169 162 141 121 109 105 105 92 82 73 81 84 84 90 93 88 86 88 88 87 82 78 76 93 123 126 126 121 118 116 113 111 109 109 110 108 105 102 99 97
191 195 185 179 178 174 167 171 154 154 154 151 163 169 171 171 169 162 166 164 165 169 159 162 169 169 169 163 162 166 165 166 168 166 152 141 125 137 149 159 160 144 209 171 167 174 148 125 122 123 117 107 99 90 88 87 79 93 95 92 91 87 83 82 79 80 84 96 110 121 122 120 121 117 115 113 115 115 111 107 104 103 102 101 99
172 167 169 169 168 171 163 153 151 151 169 165 154 157 156 153 155 163 166 161 153 159 162 165 172 174 178 178 167 151 125 144 163 161 154 155 149 151 154 145 106 205 139 137 131 129 132 124 131 132 133 125 114 114 98 91 92 95 90 90 90 86 83 78 73 69 65 67 85 115 121 119 117 117 117 116 114 114 112 105 103 103 107 105 102
171 161 171 165 157 153 148 154 158 166 161 150 155 147 149 150 154 158 155 157 165 162 167 178 174 171 188 185 166 165 163 142 146 151 133 131 140 140 147 144 142 143 132 138 152 124 114 124 136 143 140 135 131 122 112 99 97 92 95 84 91 90 88 86 79 71 64 57 53 66 103 119 117 110 112 113 102 84 75 70 65 61 56 68 100
164 165 169 153 149 155 149 155 158 156 155 157 151 150 148 150 154 157 169 168 152 160 170 172 175 181 165 163 181 179 158 150 150 141 146 140 149 153 144 118 104 143 112 149 142 123 48 107 126 139 143 143 133 127 112 106 92 85 90 95 85 88 88 88 88 84 80 72 67 65 61 65 84 94 87 85 85 85 85 85 82 78 78 75 72
156 157 149 151 151 147 143 141 149 150 147 146 146 144 150 148 153 163 162 163 159 151 160 158 166 170 172 172 171 157 160 160 153 160 158 162 158 161 149 137 103 118 151 153 153 144 156 61 127 150 156 147 143 129 117 107 107 95 90 91 95 100 104 106 103 100 96 94 90 86 88 95 99 105 110 110 114 116 114 107 104 103 96 90 81
143 139 159 148 154 150 135 143 148 146 150 149 148 147 150 148 154 152 163 163 156 162 166 162 170 171 171 150 146 178 164 160 162 159 169 166 161 163 163 154 148 158 171 154 162 141 149 135 109 143 156 155 145 133 119 111 107 104 104 110 115 114 117 117 116 114 115 119 119 117 118 120 123 126 130 130 127 125 123 119 114 111 104 98 85
146 147 147 148 149 147 137 140 148 152 149 150 150 148 149 150 156 159 158 166 157 169 161 167 179 163 158 164 172 168 168 152 154 164 166 159 163 168 182 176 167 147 159 159 195 148 214 167 144 200 151 142 135 159 123 123 127 124 130 131 133 139 136 130 129 130 130 134 138 139 138 137 136 139 140 136 134 129 126 129 124 119 118 112 109
146 153 142 144 147 146 141 144 146 149 154 152 152 149 145 153 161 165 164 156 160 150 165 163 170 162 163 157 150 179 171 153 167 171 168 167 160 176 184 167 161 158 155 165 194 202 176 226 157 161 167 157 147 168 140 140 151 140 146 151 151 155 152 143 141 140 142 143 146 147 147 148 153 156 152 151 142 141 146 145 140 144 150 149 140
141 144 140 141 144 148 147 147 144 148 148 155 156 153 151 149 161 156 147 152 151 167 182 162 166 149 159 177 170 185 177 173 163 171 174 159 173 174 176 153 150 103 153 143 145 251 166 190 223 143 153 163 162 163 152 153 158 152 154 158 164 162 151 152 153 155 155 153 153 156 161 168 174 175 175 174 173 174 176 168 167 172 177 156 151
148 145 144 147 149 150 156 152 145 151 153 158 160 156 150 154 159 151 157 143 151 168 185 181 151 159 155 173 189 180 187 153 161 170 170 176 177 176 174 172 175 145 141 157 167 189 197 177 175 141 154 156 164 160 169 161 168 161 163 169 170 160 151 170 183 177 175 172 172 176 182 179 187 194 195 199 197 197 193 186 186 193 174 160 172
149 146 150 153 154 156 161 154 156 165 162 162 163 154 152 156 161 158 154 150 150 169 167 178 166 159 168 175 196 203 153 153 168 164 163 166 179 182 180 175 179 167 155 151 151 125 34 83 123 155 159 149 172 186 164 165 168 178 175 177 168 169 178 187 199 207 198 193 190 196 202 195 196 200 202 205 204 202 200 194 197 209 180 182 189
149 149 151 155 157 158 158 157 160 165 170 170 167 154 152 154 159 154 151 151 151 163 170 168 176 171 161 176 200 183 150 151 174 136 127 173 175 171 175 182 188 187 194 142 164 158 174 69 83 90 155 187 169 194 174 169 188 180 183 188 188 186 188 194 203 215 211 203 201 204 206 207 205 207 207 207 207 204 203 199 201 207 193 191 194
158 150 154 159 162 160 151 155 146 157 171 174 168 156 157 156 156 162 157 156 158 164 173 171 176 167 163 182 195 157 176 81 328 98 131 181 156 175 184 181 189 188 193 178 140 157 162 173 171 159 184 200 187 194 203 197 183 181 181 194 196 200 207 198 206 215 214 212 211 212 212 212 210 211 212 211 210 209 205 202 202 203 198 193 194
154 160 157 162 161 158 150 152 145 153 163 163 161 168 153 157 164 170 167 166 169 173 173 169 168 167 174 177 191 168 148 157 194 88 122 12 132 162 187 176 174 172 175 170 159 144 159 145 203 185 188 186 230 221 190 184 179 188 203 198 200 212 216 213 216 222 217 214 218 218 219 218 218 217 218 217 218 218 217 213 209 205 200 195 193
155 158 164 163 154 150 157 160 145 150 154 155 153 139 155 167 170 168 166 168 174 171 176 172 167 168 169 180 180 167 139 134 96 49 46 108 127 135 154 178 171 162 154 160 157 146 144 174 183 214 188 216 224 172 173 178 197 211 215 205 209 219 227 232 229 233 233 220 223 223 221 222 221 219 218 218 219 219 218 218 217 215 209 203 196
155 167 162 167 152 162 165 155 139 115 134 149 147 158 143 122 119 136 153 158 164 166 172 170 162 167 170 169 160 144 126 124 120 99 140 105 112 127 143 146 152 141 137 143 146 148 160 173 164 171 194 190 201 202 192 194 178 190 225 238 235 231 230 247 241 236 229 220 218 231 235 238 236 229 223 220 221 221 221 220 219 217 214 209 203
155 165 167 157 149 129 104 101 97 104 94 79 83 113 128 131 124 125 134 143 153 166 167 163 164 162 163 159 152 125 127 135 132 157 137 95 95 90 113 124 123 125 131 149 152 152 155 151 174 188 183 209 186 204 218 195 208 199 196 203 250 238 222 223 250 243 228 234 230 220 219 218 223 226 230 230 227 225 222 221 222 221 216 209 203
155 158 136 107 94 102 100 93 79 78 86 69 43 43 107 135 118 121 140 149 152 150 145 132 109 56 75 107 126 157 127 134 141 157 127 109 94 82 58 93 93 99 101 106 126 139 143 163 172 188 199 183 229 251 95 130 193 252 220 192 219 230 228 225 226 232 233 222 240 238 231 230 238 238 241 238 236 232 227 225 225 223 218 207 199
123 117 118 116 110 97 84 87 85 68 74 60 16 356 65 105 113 118 133 142 135 124 117 112 117 136 157 113 98 103 114 125 129 124 108 114 117 103 94 104 93 93 94 91 120 142 149 160 194 174 168 187 210 164 157 178 198 213 211 180 224 236 238 254 254 232 228 220 243 245 238 212 224 229 225 233 236 229 233 225 229 226 220 206 199
117 117 108 105 108 109 102 86 82 75 65 46 2 339 305 149 113 110 121 132 132 133 127 115 92 71 50 68 69 75 82 83 92 96 91 85 83 104 130 111 105 89 86 87 84 113 124 121 176 170 184 210 211 197 191 211 212 226 182 185 225 240 222 247 277 250 210 203 229 241 243 210 205 235 217 234 241 214 230 213 223 216 214 206 201
114 112 108 102 97 95 99 104 90 71 61 15 351 316 290 159 116 105 113 120 130 133 135 121 100 98 94 80 84 67 59 45 51 76 91 90 92 91 87 93 113 124 112 89 108 138 111 105 90 80 147 235 272 200 205 233 225 204 217 207 219 237 230 232 253 294 229 193 213 226 254 209 179 224 229 230 238 219 220 225 224 214 212 204 202
108 106 100 101 102 102 99 94 83 64 72 15 357 49 87 110 105 99 97 99 92 92 99 104 108 105 98 85 69 61 61 80 77 42 61 74 84 83 75 70 64 58 76 136 142 74 103 102 91 155 131 248 272 279 273 157 244 226 240 210 210 221 234 230 234 240 273 193 202 205 249 216 181 218 237 236 235 223 223 232 228 217 214 209 202
106 100 104 101 97 95 102 95 79 60 59 17 4 66 81 96 102 100 96 99 98 101 104 106 107 103 101 93 84 66 64 62 66 72 83 75 73 77 76 65 52 48 43 40 40 97 148 108 130 258 214 222 303 291 244 319 103 169 178 250 268 246 240 302 261 272 278 188 169 228 260 250 178 214 230 245 240 221 227 232 228 221 217 213 201
103 100 96 96 94 88 86 93 87 60 49 5 16 68 86 94 97 98 100 97 96 100 108 113 113 110 105 104 96 80 53 60 62 64 67 62 57 52 47 49 49 39 40 34 31 32 40 76 98 39 295 310 293 278 300 349 338 304 314 292 279 242 199 204 219 226 257 153 182 182 245 272 192 222 248 258 239 230 225 228 225 223 219 211 200
106 105 107 102 94 91 81 86 85 62 31 8 35 73 88 93 90 94 96 94 89 82 71 67 68 90 105 100 97 89 50 23 48 115 92 81 76 67 56 44 44 50 54 43 39 36 35 32 27 343 295 290 277 280 282 312 301 315 149 131 251 247 233 265 262 261 286 219 207 115 246 276 140 192 247 252 243 232 235 242 235 227 218 208 200
91 94 80 85 92 85 76 75 80 63 32 17 31 66 94 99 98 92 85 83 86 78 69 62 64 54 59 87 102 91 89 49 348 72 87 84 73 61 56 41 38 38 45 70 81 75 73 48 6 310 295 289 280 282 288 291 74 189 217 356 265 268 338 308 288 267 241 257 181 144 245 255 194 189 242 252 267 261 250 255 266 244 224 211 203
98 91 89 80 73 80 74 66 75 68 45 18 29 48 74 104 99 98 96 85 69 64 52 51 65 67 61 49 62 78 74 62 18 48 85 100 87 82 76 63 46 39 359 353 358 9 10 2 348 336 323 320 319 310 307 300 237 223 49 320 284 269 236 260 276 296 280 344 335 180 211 263 248 213 249 301 355 350 357 359 10 6 315 236 199
97 97 101 90 74 65 69 66 63 75 56 30 36 45 50 54 93 105 102 95 87 74 60 36 43 62 63 64 65 65 67 50 32 60 41 64 92 100 93 75 48 22 348 355 351 357 11 354 349 340 328 334 336 333 327 319 328 185 208 223 238 188 268 246 263 267 295 335 310 339 244 245 56 25 294 293 82 37 7 4 11 16 40 97 144
85 94 91 91 84 67 61 67 62 66 61 40 37 45 47 44 59 86 102 108 102 101 98 79 48 46 58 49 56 59 75 64 54 45 42 62 86 96 104 100 79 31 357 12 13 354 352 356 353 353 350 352 345 343 337 337 347 161 214 238 276 258 251 252 251 291 314 302 327 339 276 330 16 10 3 3 4 268 61 18 16 30 51 73 111